Retour au catalogue

DELTA 1 DEB

ActifUNKNOWN
NORAD 15540·DEBRIS·🇺🇸 United States

Lancé Jul 29, 1976 depuis Vandenberg Space Force Base

Loading…

Prochains Passages (prochaines 24 heures)

TLE

FraisSource: Space-Track

Époque: Sep 14, 2026, 18:41 UTC

1 15540U 76077EU  26257.77879948 -.00000118  00000-0 -92807-3 0  9994
2 15540 102.7152 199.4367 0561583 252.9821 129.4588 11.68257855509516

Suivez DELTA 1 DEB en temps réel avec AllMySat

Download on the App Store